This is the latest recevied weather packets stored in our database for station/object N4WFF. If no packets are shown the sender has not sent any weather packets the latest 10 day(s).
| Time | Temp. | Humidity | Pressure | Rain* | Wind** | Luminosity | Snow |
|---|---|---|---|---|---|---|---|
| 1777552855 | 17.78° C | 97% | 1012.2 hPa | 0 mm | - | 69 W/m² | - |
| 1777552555 | 17.78° C | 97% | 1012.1 hPa | 0 mm | - | 69 W/m² | - |
| 1777552256 | 17.78° C | 97% | 1012.2 hPa | 0 mm | - | 79 W/m² | - |
| 1777551956 | 17.78° C | 97% | 1012 hPa | 0 mm | - | 58 W/m² | - |
| 1777551655 | 17.78° C | 97% | 1012.1 hPa | 0 mm | - | 30 W/m² | - |
| 1777551355 | 17.78° C | 97% | 1012 hPa | 0 mm | - | 43 W/m² | - |
| 1777551055 | 17.78° C | 97% | 1011.9 hPa | 0 mm | - | 42 W/m² | - |
| 1777550755 | 17.78° C | 97% | 1011.9 hPa | 0 mm | - | 46 W/m² | - |
| 1777550456 | 17.78° C | 97% | 1012 hPa | 0 mm | - | 45 W/m² | - |
| 1777550156 | 17.78° C | 97% | 1012.1 hPa | 0 mm | - | 26 W/m² | - |
| 1777549856 | 17.78° C | 97% | 1012.2 hPa | 0 mm | - | 19 W/m² | - |
| 1777549559 | 17.78° C | 97% | 1012.1 hPa | 0 mm | - | 16 W/m² | - |
| 1777549255 | 17.78° C | 97% | 1012.1 hPa | 0 mm | - | 16 W/m² | - |
| 1777548955 | 17.78° C | 97% | 1012.1 hPa | 0 mm | - | 17 W/m² | - |
| 1777548656 | 17.78° C | 97% | 1012.1 hPa | 0 mm | - | 10 W/m² | - |
| 1777548357 | 17.22° C | 96% | 1012.1 hPa | 0 mm | - | 7 W/m² | - |
| 1777548055 | 17.22° C | 96% | 1012.1 hPa | 0 mm | - | 4 W/m² | - |
| 1777547755 | 17.22° C | 96% | 1011.9 hPa | 0 mm | - | 3 W/m² | - |
| 1777547455 | 17.22° C | 96% | 1011.9 hPa | 0 mm | - | 3 W/m² | - |
| 1777547155 | 17.22° C | 96% | 1011.7 hPa | 0 mm | - | 2 W/m² | - |
| 1777546856 | 17.78° C | 96% | 1011.7 hPa | 0 mm | - | 1 W/m² | - |
| 1777546555 | 17.78° C | 96% | 1012 hPa | 0 mm | - | 0 W/m² | - |
| 1777546256 | 17.78° C | 96% | 1012 hPa | 0 mm | - | 0 W/m² | - |
| 1777545955 | 17.78° C | 96% | 1011.8 hPa | 0 mm | - | 0 W/m² | - |
| 1777545656 | 17.78° C | 96% | 1011.8 hPa | 0 mm | - | 0 W/m² | - |
* Rain latest hour (hover to see other rain measurements)
** Current wind speed in m/s (hover to see current wind gust speed)